Список аэропортов
Фактическая погода:

16 декабря, 13:30
Температура: -2°C (-8.9*)
Ветер: западный 8 м/с
Давление: *761 мм
снег
Время (МСК)Темп. СВетерВлажностьДавлениеОблачностьОсадки
09:00+3З, 2 м/с92%1015 гПаоблачно
10:00+3З, 4 м/с89%1015 гПаоблачносл. дождь
11:00+2З, 5 м/с86%1015 гПаоблачнодождь
12:000З, 7 м/с83%1016 гПаоблачноснег
13:000З, 6 м/с82%1016 гПаоблачноснег
14:00+1З, 5 м/с84%1017 гПаоблачнодождь
15:00+1З, 4 м/с86%1017 гПаоблачнодождь
16:000СЗ, 4 м/с86%1018 гПаоблачноснег
17:000З, 3 м/с86%1018 гПаоблачноснег
18:000З, 3 м/с85%1019 гПаоблачноснег
19:00-0СЗ, 2 м/с86%1019 гПаоблачноснег
20:00-0З, 2 м/с86%1020 гПаоблачноснег
21:00-0З, 3 м/с87%1020 гПаоблачноснег
22:00-0З, 3 м/с86%1021 гПаоблачносл. снег
23:00-0З, 2 м/с84%1020 гПаоблачно
17 декабря
00:00-1З, 2 м/с83%1020 гПаоблачно
01:00-1З, 3 м/с83%1020 гПаоблачносл. снег
02:00-1З, 4 м/с86%1020 гПаоблачносл. снег
03:00-1З, 3 м/с86%1020 гПаоблачносл. снег
04:00-1З, 4 м/с84%1020 гПаоблачно
05:00-2З, 1 м/с83%1019 гПаоблачно
06:00-2З, 1 м/с84%1019 гПаоблачно
07:00-2З, 2 м/с83%1018 гПаоблачно
08:00-2З, 2 м/с84%1018 гПаоблачно
09:00-1З, 2 м/с84%1018 гПаоблачно
10:00-1СЗ, 1 м/с84%1018 гПаоблачносл. снег
11:00-0СЗ, 1 м/с86%1018 гПаоблачносл. снег
12:00-0СЗ, 1 м/с88%1017 гПаоблачно
13:00+1СВ, 1 м/с89%1016 гПаоблачно
14:00+2СВ, 1 м/с90%1015 гПаоблачно
15:00+2В, 2 м/с92%1014 гПаоблачно
16:00+3В, 2 м/с94%1013 гПаоблачно
17:00+3В, 3 м/с95%1013 гПаоблачно
18:00+3В, 4 м/с95%1013 гПаоблачно
19:00+3ЮВ, 4 м/с94%1013 гПаоблачно
20:00+3ЮВ, 4 м/с95%1013 гПаоблачно
21:00+3ЮВ, 3 м/с95%1013 гПаоблачно
22:00+3В, 3 м/с95%1013 гПаоблачно
23:00+3ЮВ, 3 м/с95%1012 гПаоблачно
18 декабря
00:00+3ЮВ, 2 м/с95%1012 гПаоблачнодождь
01:00+3В, 2 м/с95%1012 гПаоблачнодождь
02:00+3СВ, 2 м/с95%1012 гПаоблачнодождь
03:00+3СВ, 2 м/с93%1012 гПаоблачносл. дождь
04:00+3СВ, 2 м/с92%1012 гПаоблачнодождь
05:00+3СВ, 2 м/с91%1012 гПаоблачносл. дождь
06:00+2СВ, 2 м/с91%1012 гПаоблачно
07:00+2СВ, 2 м/с92%1012 гПаоблачносл. дождь
08:00+3СВ, 2 м/с90%1013 гПаоблачносл. дождь
09:00+2СВ, 2 м/с90%1014 гПаоблачно